[[{"header":{"parameterUnit":"m.s-1","parameterCategory":1,"la1":30.2991,"la2":30.254,"lo1":-89.0895,"lo2":-89.0444,"dy":0.0017,"dx":0.0017,"nx":28,"ny":28,"refTime":"2024-12-10T09:00:00:Z","depth":0,"parameterNumber":2,"parameterNumberName":"U-component_of_WINDS"},"data":[0,0,0,0,0,0,0,0,0,0,0,0,0,0,0,0,0,0,0,0,0,0,0,0,0,0,0,0,0,0,0,0,0,0,0,0,0,0,0,0,0,0,0,0,0,0,0,0,0,0,0,0,0,0,0,0,0,0,4.4258,4.4259,0,4.4375,4.4376,4.4378,4.4358,4.4356,4.4354,4.4352,4.4471,4.4476,4.4481,0,0,0,0,0,0,0,0,0,0,0,0,0,4.4017,4.4021,4.4257,4.4259,4.426,4.4375,4.4376,4.4378,4.4358,4.4356,4.4353,4.4351,4.447,4.4476,4.4482,0,0,0,0,0,0,0,0,0,0,0,0,0,4.4127,4.4023,4.4257,4.4264,4.4266,4.4374,4.4376,4.4378,4.4359,4.4356,4.4353,4.435,4.4468,4.4475,4.4483,4.4591,0,0,4.4506,4.4509,0,0,0,0,0,0,0,0,4.412,4.4135,4.4262,4.4264,4.4266,4.4349,4.4335,4.445,4.436,4.4324,4.4352,4.4348,4.4433,4.4443,4.4472,4.4597,4.4602,4.4507,4.4511,4.4515,4.4517,0,0,0,0,0,0,0,4.4113,4.413,4.4304,4.4264,4.4266,4.4262,4.4274,4.4357,4.4394,4.4326,4.4325,4.434,4.4434,4.4465,4.4475,4.4604,4.4506,4.4513,4.4518,4.4521,4.4826,4.4829,0,0,0,0,0,0,4.4103,4.4124,4.43,4.4307,4.4184,4.4269,4.4282,4.4325,4.4393,4.44,4.4342,4.4338,4.4453,4.4466,4.4479,4.4612,4.4514,4.4522,4.4526,4.4823,4.4827,4.4831,0,0,0,0,0,0,4.4098,4.4119,4.4295,4.4216,4.4238,4.4276,4.4324,4.4329,4.436,4.4405,4.4411,4.4367,4.4451,4.4468,4.4564,4.4616,4.4525,4.4532,4.4818,4.4824,4.4829,4.4878,0,0,0,0,0,0,4.4091,4.4117,4.4158,4.4217,4.4242,4.4378,4.4328,4.4334,4.4374,4.437,4.443,4.4437,4.445,4.4553,4.4572,4.4625,4.4538,4.4814,4.4821,4.4827,4.4872,4.4884,4.4895,0,0,0,0,0,4.4083,4.4167,4.4161,4.4182,4.4294,4.4381,4.4396,4.441,4.4378,4.442,4.4449,4.4435,4.4607,4.4563,4.4584,4.464,4.4811,4.4819,4.4827,4.4867,4.4882,4.4895,0,0,0,0,0,0,4.4112,4.4174,4.4168,4.4273,4.4323,4.4378,4.4431,4.4425,4.4483,4.4477,4.4492,4.4505,4.4603,4.4631,4.458,4.475,4.4705,4.4717,4.4728,4.4743,4.4754,4.4745,4.4544,0,0,0,0,0,4.4131,4.4197,4.4248,4.4336,4.4361,4.4392,4.443,4.4437,4.4488,4.4508,4.4544,4.4595,4.466,4.4703,4.4765,4.4876,4.489,4.4925,4.4937,4.4946,4.4957,4.502,4.5036,4.4857,4.4857,4.4857,0,0,4.4171,4.4213,4.4253,4.4343,4.4381,4.445,4.4409,4.4482,4.4534,4.4519,4.4613,4.4641,4.4698,4.4803,4.485,4.4829,4.501,4.4956,4.4963,4.4969,4.503,4.5046,4.5062,4.4862,4.4861,4.486,0,0,4.4278,4.4316,4.4394,4.4435,4.4494,4.4515,4.4534,4.4591,4.461,4.4704,4.4696,4.4757,4.4869,4.4911,4.4947,4.5073,4.5063,4.5093,4.5153,4.5214,4.5229,4.5241,4.5288,4.5304,4.5104,4.5104,4.5104,0,4.4319,4.4422,4.4436,4.4511,4.4551,4.4543,4.4624,4.4662,4.4739,4.4767,4.4742,4.4885,4.4922,4.5038,4.5069,4.5098,4.5121,4.5086,4.5225,4.5238,4.525,4.5295,4.5312,4.5107,4.5107,4.5107,4.5106,0,4.4471,4.4542,4.4598,4.4674,4.4721,4.4798,4.4825,4.4871,4.4874,4.4898,4.4995,4.5041,4.5114,4.5141,4.5145,4.5258,4.5243,4.5222,4.5177,4.5271,4.5313,4.533,4.5112,4.5111,4.511,4.5109,0,0,4.4598,4.4682,4.4703,4.4738,4.4805,4.4861,4.4939,4.5011,4.5051,4.5105,4.5171,4.5268,4.525,4.529,4.5299,4.5352,4.5452,4.5325,4.5326,4.5348,4.5582,4.5598,4.5617,4.5446,4.5449,4.5452,4.5577,0,4.4712,4.485,4.4866,4.4989,4.5056,4.5051,4.5119,4.5168,4.5193,4.5254,4.5281,4.535,4.532,4.5345,4.5398,4.5429,4.5499,4.542,4.5509,4.5512,4.5495,4.5639,4.5656,4.5772,4.5594,4.5597,4.5599,0,4.4863,4.4923,4.5053,4.5113,4.5141,4.5202,4.5271,4.5329,4.5385,4.54,4.5447,4.5449,4.5531,4.5483,4.5597,4.5543,4.5581,4.5602,4.5607,4.5615,4.5561,4.5653,4.5809,4.5827,4.5625,4.5622,4.5621,0,4.4944,4.5057,4.515,4.5181,4.5252,4.5296,4.5328,4.5381,4.5424,4.5484,4.5513,4.5582,4.5619,4.5673,4.5695,4.5657,4.5808,4.5761,4.5823,4.5823,4.5855,4.5852,4.602,4.5878,4.5878,4.5878,4.5877,0,4.507,4.515,4.5188,4.5245,4.5336,4.5354,4.5443,4.5473,4.5521,4.5585,4.5584,4.5644,4.5669,4.5733,4.575,4.5843,4.586,4.5874,4.5878,4.5875,4.5873,4.59,4.5892,4.5882,4.5881,4.588,4.588,0,4.5176,4.5204,4.5306,4.5366,4.5383,4.5447,4.5499,4.5555,4.5581,4.5662,4.5682,4.5721,4.5797,4.5824,4.5916,4.5928,4.6036,4.6032,4.6017,4.6018,4.6078,4.6073,4.6269,4.6297,4.6136,4.6138,4.6139,0,4.5254,4.5316,4.5384,4.5427,4.5461,4.553,4.5575,4.5596,4.5643,4.5713,4.5761,4.5837,4.5898,4.602,4.6057,4.6128,4.6127,4.6191,4.6137,4.6133,4.6129,4.6126,4.6133,4.6201,4.6202,4.6204,4.6205,0,4.5391,4.5403,4.5467,4.5538,4.5592,4.5648,4.5703,4.5738,4.5768,4.5821,4.5899,4.5947,4.6042,4.6118,4.6191,4.6224,4.6221,4.6222,4.624,4.6237,4.6226,4.6234,4.6045,4.6217,4.6216,4.6215,4.6214,4.6214,4.5486,4.5542,4.5599,4.5672,4.5716,4.5767,4.5824,4.5857,4.5922,4.6002,4.6011,4.6095,4.6152,4.625,4.6288,4.6355,4.6337,4.6363,4.637,4.6376,4.6381,4.6216,4.6368,4.6368,4.6367,4.6367,4.6367,0,4.5624,4.5661,4.5728,4.5806,4.5863,4.5855,4.5916,4.5965,4.604,4.6093,4.6155,4.6246,4.632,4.6364,4.6439,4.6484,4.6484,4.6503,4.65,4.6508,4.6392,4.6369,4.6502,4.6502,4.6502,4.6502,4.6502,4.6502,4.5703,4.5797,4.5816,4.5933,4.5969,4.6053,4.6088,4.6137,4.618,4.6282,4.6344,4.6372,4.6423,4.6502,4.657,4.6581,4.6609,4.663,4.664,4.653,4.6516,4.6503,4.6482,4.6636,4.6636,4.675,4.6751,4.6752]},{"header":{"parameterUnit":"m.s-1","parameterCategory":1,"la1":30.2991,"la2":30.254,"lo1":-89.0895,"lo2":-89.0444,"dy":0.0017,"dx":0.0017,"nx":28,"ny":28,"refTime":"2024-12-10T09:00:00:Z","depth":0,"parameterNumber":3,"parameterNumberName":"V-component_of_WINDS"},"data":[0,0,0,0,0,0,0,0,0,0,0,0,0,0,0,0,0,0,0,0,0,0,0,0,0,0,0,0,0,0,0,0,0,0,0,0,0,0,0,0,0,0,0,0,0,0,0,0,0,0,0,0,0,0,0,0,0,0,-8.0319,-8.0321,0,-8.0503,-8.0505,-8.0507,-8.0466,-8.0463,-8.046,-8.0456,-8.064,-8.0648,-8.0656,0,0,0,0,0,0,0,0,0,0,0,0,0,-7.993,-7.9938,-8.0319,-8.0321,-8.0324,-8.0502,-8.0505,-8.0508,-8.0467,-8.0463,-8.0459,-8.0455,-8.0637,-8.0647,-8.0656,0,0,0,0,0,0,0,0,0,0,0,0,0,-8.0105,-7.994,-8.0319,-8.0325,-8.0327,-8.0502,-8.0505,-8.0508,-8.0468,-8.0463,-8.0458,-8.0453,-8.0634,-8.0646,-8.0658,-8.0836,0,0,-8.0695,-8.07,0,0,0,0,0,0,0,0,-8.0095,-8.0119,-8.0322,-8.0325,-8.0328,-8.0457,-8.0435,-8.0618,-8.0469,-8.0414,-8.0456,-8.045,-8.0583,-8.0599,-8.0644,-8.0844,-8.0852,-8.0696,-8.0703,-8.0708,-8.0712,0,0,0,0,0,0,0,-8.0083,-8.0111,-8.0391,-8.0325,-8.0329,-8.0318,-8.0337,-8.047,-8.0525,-8.0419,-8.0416,-8.0439,-8.0583,-8.0633,-8.0648,-8.0855,-8.0696,-8.0706,-8.0714,-8.0719,-8.1212,-8.1218,0,0,0,0,0,0,-8.0069,-8.0101,-8.0386,-8.0397,-8.0197,-8.0329,-8.035,-8.042,-8.0524,-8.0534,-8.0443,-8.0436,-8.0615,-8.0634,-8.0655,-8.0872,-8.0708,-8.072,-8.0727,-8.1207,-8.1214,-8.122,0,0,0,0,0,0,-8.0061,-8.0095,-8.0378,-8.0249,-8.0284,-8.0341,-8.042,-8.0427,-8.0476,-8.0542,-8.0551,-8.0484,-8.0611,-8.0638,-8.0792,-8.0877,-8.0725,-8.0736,-8.12,-8.1209,-8.1217,-8.1306,0,0,0,0,0,0,-8.005,-8.0092,-8.0161,-8.0251,-8.0291,-8.0514,-8.0425,-8.0434,-8.0498,-8.0491,-8.0583,-8.0593,-8.0609,-8.0774,-8.0804,-8.0891,-8.0746,-8.1192,-8.1204,-8.1214,-8.1296,-8.1317,-8.1335,0,0,0,0,0,-8.0036,-8.0177,-8.0164,-8.0199,-8.0379,-8.0519,-8.0542,-8.0559,-8.0505,-8.0574,-8.0617,-8.059,-8.0863,-8.079,-8.0824,-8.0916,-8.1187,-8.12,-8.1213,-8.1287,-8.1313,-8.1334,0,0,0,0,0,0,-8.0093,-8.0189,-8.0176,-8.035,-8.0427,-8.0512,-8.06,-8.0585,-8.0678,-8.0667,-8.0683,-8.0705,-8.0862,-8.0904,-8.0821,-8.1095,-8.1017,-8.1038,-8.1062,-8.1087,-8.1106,-8.1093,-8.0756,0,0,0,0,0,-8.0127,-8.0234,-8.0311,-8.0457,-8.0497,-8.0542,-8.0603,-8.0611,-8.069,-8.0722,-8.0775,-8.0852,-8.0956,-8.1023,-8.1122,-8.1301,-8.1321,-8.1381,-8.1401,-8.1416,-8.1434,-8.1534,-8.1562,-8.1263,-8.1263,-8.1263,0,0,-8.0196,-8.0261,-8.0327,-8.047,-8.0531,-8.0641,-8.0569,-8.0688,-8.077,-8.0739,-8.0889,-8.0931,-8.1018,-8.1187,-8.1263,-8.1226,-8.1521,-8.1433,-8.1445,-8.1455,-8.155,-8.1579,-8.1604,-8.1272,-8.127,-8.1269,0,0,-8.0379,-8.0439,-8.0568,-8.0631,-8.0724,-8.0753,-8.0785,-8.0872,-8.09,-8.1051,-8.1031,-8.1128,-8.1305,-8.1369,-8.1424,-8.1634,-8.1613,-8.1665,-8.1767,-8.1864,-8.1888,-8.1909,-8.1985,-8.2012,-8.1682,-8.1683,-8.1683,0,-8.0453,-8.0619,-8.0636,-8.0759,-8.0822,-8.0802,-8.0934,-8.0993,-8.1113,-8.1157,-8.1114,-8.1338,-8.1395,-8.1579,-8.163,-8.1675,-8.1712,-8.1655,-8.1883,-8.1905,-8.1924,-8.1997,-8.2026,-8.1688,-8.1688,-8.1687,-8.1687,0,-8.0706,-8.0822,-8.0915,-8.1034,-8.1108,-8.1234,-8.1271,-8.1343,-8.1345,-8.1379,-8.1533,-8.1601,-8.1714,-8.1758,-8.1759,-8.1943,-8.1918,-8.1879,-8.1802,-8.1959,-8.2027,-8.2055,-8.1697,-8.1695,-8.1693,-8.1692,0,0,-8.0929,-8.1058,-8.1092,-8.1147,-8.1249,-8.1338,-8.1463,-8.1576,-8.1639,-8.1722,-8.1828,-8.198,-8.1946,-8.2009,-8.2017,-8.2102,-8.2266,-8.2054,-8.2056,-8.2092,-8.2475,-8.2504,-8.2536,-8.2253,-8.2258,-8.2262,-8.2468,0,-8.1122,-8.1345,-8.1366,-8.1565,-8.1673,-8.1656,-8.1766,-8.184,-8.1875,-8.1971,-8.2009,-8.2117,-8.2063,-8.2102,-8.2185,-8.2229,-8.2343,-8.2214,-8.2351,-8.2356,-8.2331,-8.2572,-8.2602,-8.2793,-8.2495,-8.2499,-8.2502,0,-8.1377,-8.1471,-8.1683,-8.1772,-8.1818,-8.1916,-8.2022,-8.2114,-8.2197,-8.2217,-8.2289,-8.2287,-8.2415,-8.2333,-8.2511,-8.2423,-8.248,-8.251,-8.2518,-8.2532,-8.2439,-8.2593,-8.2854,-8.2883,-8.2545,-8.2541,-8.2538,0,-8.1521,-8.17,-8.185,-8.1897,-8.2004,-8.2074,-8.2122,-8.2201,-8.2268,-8.236,-8.2404,-8.2509,-8.2567,-8.2648,-8.2674,-8.2611,-8.2851,-8.2771,-8.2871,-8.2871,-8.2923,-8.292,-8.3198,-8.2958,-8.2958,-8.2957,-8.2957,0,-8.1735,-8.1865,-8.1917,-8.2009,-8.2155,-8.2177,-8.232,-8.2363,-8.2435,-8.2535,-8.2526,-8.262,-8.2648,-8.2747,-8.2767,-8.2912,-8.2938,-8.2958,-8.2962,-8.2959,-8.2957,-8.2997,-8.2985,-8.2965,-8.2963,-8.2962,-8.2961,0,-8.192,-8.196,-8.2123,-8.2212,-8.2237,-8.2341,-8.2417,-8.2506,-8.254,-8.2668,-8.2699,-8.2752,-8.2869,-8.2903,-8.3041,-8.3055,-8.3226,-8.3217,-8.3199,-8.3199,-8.3299,-8.3289,-8.3613,-8.3658,-8.3388,-8.339,-8.3393,0,-8.2055,-8.2155,-8.2256,-8.2324,-8.2375,-8.2484,-8.2553,-8.2578,-8.2651,-8.2755,-8.2832,-8.2947,-8.3041,-8.3228,-8.3278,-8.3385,-8.338,-8.3486,-8.3395,-8.3391,-8.3383,-8.3377,-8.3388,-8.3503,-8.3506,-8.3508,-8.351,0,-8.229,-8.2306,-8.2406,-8.2516,-8.2599,-8.2685,-8.2768,-8.2824,-8.2861,-8.2943,-8.3063,-8.3136,-8.328,-8.3395,-8.3503,-8.3551,-8.3538,-8.3538,-8.3568,-8.3566,-8.3552,-8.3563,-8.3247,-8.3531,-8.3529,-8.3527,-8.3526,-8.3525,-8.2455,-8.2545,-8.263,-8.2744,-8.2809,-8.2888,-8.2977,-8.3023,-8.3124,-8.3245,-8.3253,-8.3384,-8.3466,-8.3611,-8.3665,-8.3767,-8.3736,-8.3777,-8.3788,-8.3799,-8.3808,-8.3536,-8.3786,-8.3786,-8.3785,-8.3785,-8.3784,0,-8.2691,-8.2746,-8.2851,-8.2968,-8.3058,-8.3039,-8.313,-8.3206,-8.3322,-8.3401,-8.3494,-8.3633,-8.3745,-8.3805,-8.3917,-8.3987,-8.3984,-8.4015,-8.4011,-8.4022,-8.3828,-8.3793,-8.4016,-8.4016,-8.4016,-8.4016,-8.4016,-8.4016,-8.2825,-8.2976,-8.3001,-8.3185,-8.3238,-8.3368,-8.3422,-8.3494,-8.3557,-8.3714,-8.3808,-8.3847,-8.3919,-8.4036,-8.4138,-8.4152,-8.4194,-8.423,-8.4242,-8.4059,-8.4036,-8.4013,-8.398,-8.4239,-8.4239,-8.4427,-8.4429,-8.443]}]]